Lid_Strength_Index
3 5 8 10 13 15 15 15 12 10 8 9 6 7 8 7 8 11 3 1 1 1 0 -0 -1 -1 -1 -1 -1 -1 -1 -1 -1 -1 -1 -1 -1 -1 -1 -1 -2 -2 -2 -2 -2 -2 -2 -2 -2
4 6 8 12 15 16 14 12 11 9 7 9 8 7 7 8 5 4 3 1 0 0 -0 -0 -1 -1 -1 -1 -1 -1 -1 -1 -1 -1 -1 -1 -1 -1 -1 -1 -2 -2 -2 -2 -2 -2 -2 -2 -2
8 6 10 14 16 16 14 10 11 8 7 7 10 7 7 6 4 3 2 1 0 0 -0 -0 -1 -1 -1 -1 -1 -1 -1 -1 -1 -1 -1 -1 -1 -1 -1 -1 -2 -2 -2 -2 -2 -2 -2 -1 -1
8 8 11 14 16 14 12 9 9 8 7 6 7 8 6 6 4 2 1 0 1 0 -0 -0 -1 -1 -1 -1 -1 -1 -1 -1 -1 -1 -1 -1 -1 -1 -1 -1 -1 -2 -2 -2 -2 -2 -1 -1 -1
7 10 14 15 15 13 12 11 9 8 8 7 7 8 9 7 2 1 1 1 1 1 0 -0 -1 -1 -1 -1 -1 -1 -1 -1 -1 -1 -1 -1 -1 -1 -1 -1 -1 -1 -2 -1 -2 -2 -2 -2 -2
9 10 14 15 13 11 11 11 10 8 7 7 7 8 8 6 5 2 1 1 0 1 0 -0 -1 -1 -1 -1 -1 -1 -1 -1 -1 -1 -1 -1 -1 -1 -1 -1 -1 -1 -2 -2 -2 -2 -2 -2 -2
10 11 12 13 12 11 10 9 10 9 7 7 7 8 8 7 7 2 2 1 1 0 0 -0 -0 -0 -1 -1 -1 -1 -1 -1 -1 -1 -1 -1 -1 -1 -1 -1 -1 -1 -2 -2 -2 -2 -2 -2 -2
9 10 13 12 11 11 8 9 9 9 7 6 6 9 10 7 6 4 2 2 2 1 0 0 -0 -0 -0 -0 -1 -1 -1 -1 -1 -1 -1 -1 -1 -1 -1 -1 -1 -1 -1 -2 -2 -2 -2 -2 -2
8 13 14 12 10 9 8 8 7 7 7 6 7 7 7 6 2 2 2 2 2 1 1 0 0 0 -0 -0 -0 -1 -1 -1 -1 -1 -1 -0 0 0 -0 -1 -1 -1 -1 -2 -2 -2 -2 -2 -2
11 14 13 9 8 8 8 9 9 8 9 8 7 6 6 7 3 4 4 4 3 2 2 1 0 0 0 -0 -0 -0 -0 -0 0 0 0 0 1 1 -0 -0 -1 -1 -1 -1 -1 -1 -1 -1 0
11 12 10 9 9 8 8 9 8 9 10 9 8 6 6 6 4 4 4 3 3 2 1 1 1 0 0 0 0 -0 -0 -0 -0 -0 -0 1 0 1 0 1 0 1 -0 0 -0 0 0 0 0
13 10 10 8 8 8 8 7 10 9 9 8 7 6 5 6 5 4 4 4 4 2 2 1 1 1 1 1 0 0 0 -0 -0 -0 0 0 1 1 0 0 0 0 0 0 0 0 0 0 0
13 11 10 9 9 9 8 8 8 10 8 7 6 5 6 7 7 6 5 6 5 3 2 1 1 1 1 0 1 1 1 0 0 0 0 0 0 1 1 0 0 0 1 1 1 1 1 1 1
12 11 10 10 10 10 10 9 9 9 8 8 7 6 6 6 5 5 5 5 5 5 4 2 1 0 1 0 0 0 1 0 1 -0 -0 -0 0 0 0 0 0 0 1 1 1 1 2 2 2
11 13 12 11 10 10 9 10 10 7 8 8 7 6 6 6 5 4 4 5 5 4 4 3 2 1 1 1 0 0 0 0 0 0 -0 -0 0 0 0 0 1 0 0 1 1 1 2 3 2
13 14 16 12 10 9 10 13 9 8 7 7 8 7 6 6 5 4 3 4 6 6 5 3 1 1 1 1 0 0 0 1 0 0 0 -0 -0 -0 0 0 1 0 0 1 2 2 2 2 2
14 17 16 13 10 10 11 13 10 8 8 9 8 8 6 5 5 6 4 3 5 5 4 4 2 1 1 1 0 1 1 1 2 1 1 0 -0 -0 0 0 0 1 2 2 2 3 4 4 4
16 16 15 14 11 11 12 13 11 9 9 9 8 7 5 5 5 5 5 4 3 5 6 4 4 3 3 2 2 2 1 0 -0 0 1 1 0 -0 0 0 1 0 2 2 3 3 4 4 3
13 14 14 12 10 11 12 12 11 10 10 10 9 9 7 5 4 6 5 4 3 3 3 4 4 5 5 5 4 3 2 1 1 0 0 0 1 0 0 1 1 1 2 2 2 3 3 3 3
12 13 13 12 10 11 12 12 11 10 10 9 9 9 9 8 7 6 4 3 3 3 3 3 4 4 5 5 5 4 2 3 2 2 1 0 0 0 1 1 1 2 2 2 3 3 4 3 2
12 13 13 12 10 11 12 13 12 10 9 8 8 9 8 7 7 5 4 4 3 3 3 2 3 4 4 5 5 3 3 3 4 3 3 3 1 0 0 0 0 1 2 1 1 2 3 3 3
14 10 11 11 13 16 12 17 14 11 10 9 8 9 9 8 6 5 4 4 4 3 3 2 3 3 3 2 3 5 4 4 3 4 3 2 1 0 0 0 0 0 1 2 2 1 2 3 3
13 10 11 12 14 16 15 18 16 12 12 10 9 8 8 8 8 6 4 4 4 5 4 5 4 3 2 2 3 3 3 3 3 3 3 2 1 1 0 0 0 1 1 1 1 2 2 2 2
9 12 13 15 16 19 16 17 16 14 12 11 9 8 6 7 8 6 4 4 5 5 4 3 3 3 3 2 3 3 3 3 3 3 3 3 3 2 1 1 1 0 0 1 1 1 1 2 2
12 16 20 20 20 18 14 16 15 12 10 9 8 8 7 7 7 7 6 5 4 4 5 4 3 3 3 3 3 3 3 3 3 3 3 3 2 2 2 2 2 1 0 0 1 1 1 1 2
14 15 18 21 20 18 14 18 14 9 8 7 7 7 7 7 7 7 6 4 4 4 4 3 3 3 3 3 3 3 3 3 3 3 2 3 2 2 1 1 1 1 1 1 1 1 1 1 1
13 16 14 16 16 19 16 14 10 9 8 8 8 8 8 8 7 7 5 5 4 4 4 3 3 4 3 3 3 3 3 3 3 2 3 3 2 1 1 1 1 1 1 1 1 1 1 1 1
12 11 16 16 20 21 18 17 16 11 10 8 8 8 8 8 7 7 7 6 6 5 4 3 3 3 3 3 3 3 3 3 2 3 3 3 2 1 1 1 1 1 1 1 1 1 1 1 1
13 13 13 13 15 20 21 18 12 12 11 10 8 8 8 8 7 7 6 7 7 7 6 5 4 4 4 4 3 3 3 3 3 3 2 2 2 2 2 1 1 1 1 1 2 2 1 2 2
11 12 12 17 18 16 18 18 9 10 10 8 8 7 6 7 7 6 5 5 6 7 7 7 6 6 4 3 3 3 3 3 3 2 2 2 3 3 2 1 1 1 1 1 2 2 2 2 2